Preview of NWS' New Version of Forecast
This preview is not operational and should not be used for support decisions.

Regional Weather Roundup (RWR)

Issued by National Weather Service (NWS)

                            
000
ASUS42 KTBW 210018
RWRFL 
FLORIDA REGIONAL WEATHER ROUNDUP
NATIONAL WEATHER SERVICE TAMPA BAY RUSKIN FL
800 PM EDT FRI SEP 20 2019

NOTE: "FAIR" INDICATES FEW OR NO CLOUDS BELOW 12,000 FEET WITH NO
SIGNIFICANT WEATHER AND/OR OBSTRUCTIONS TO VISIBILITY.

FLZ001>010-012>015-112-114-115-210100-
PANHANDLE FLORIDA
  
CITY           SKY/WX    TMP DP  RH WIND       PRES   REMARKS
PENSACOLA      FAIR      81  69  67 SE7       30.11S                  
PENSACOLA NAS  FAIR      81  70  69 SE10      30.11R                  
MILTON NAS     FAIR      80  65  59 SE9       30.12R                  
CRESTVIEW      FAIR      81  62  52 CALM      30.14R                  
DUKE FIELD     FAIR      81  67  60 S8        30.12R                  
VALPARAISO     FAIR      82  68  63 S5        30.11S                  
MARY ESTHER    PTCLDY    81  70  68 SE5       30.11R                  
TRI COUNTY     FAIR      82  60  47 NE3       30.14R                  
PANAMA CITY    FAIR      81  64  56 CALM      30.11S                  
TYNDALL AFB    FAIR      82  64  55 E3        30.10S                  
APALACHICOLA   CLOUDY    82  66  58 E5        30.11R                  

STATION/POSITION SKY/WX   TEMP    WIND        PRES    WAVE   SWELL
                          AIR SEA DIR/SP/G            HT/PER HT/PER
                          (F)     (DEG/KT/KT) (MB)    (FT/S) (FT/S)
30.1N   87.6W              82 85  110/ 16/ 17 1019.5R   5/ 6   2/ 8
29.2N   88.2W              82     110/ 21/ 27 1018.7R
28.8N   86.0W                      80/ 17/ 23 1018.7R
PANAMA CITY BEAC           84 84  110/  4/  6 1020.0
TOWER C                    82      60/ 16/ 17 1019.3F
28.5N   84.5W              83      70/ 19/ 25 1019.0R   5/ 6

$$
FLZ011-016>038-118-127-128-134-139-239-210100-
NORTH FLORIDA
  
CITY           SKY/WX    TMP DP  RH WIND       PRES   REMARKS
MARIANNA       FAIR      80  60  50 NE5       30.13R                  
TALLAHASSEE    FAIR      83  62  49 E7        30.13R                  
PERRY          FAIR      80  61  53 E3        30.14R                  
LIVE OAK       PTCLDY    79  61  53 NE3       30.15R                  
CROSS CITY       N/A     79  65  64 E5        30.13R                  
LAKE CITY      FAIR      77  61  57 E3        30.17R                  
GAINESVILLE    FAIR      75  63  66 E6        30.17R                  
WILLISTON      FAIR      78  67  68 E5        30.14R                  
PALATKA        LGT RAIN  75  68  78 E10G16    30.16R                  
MAYPORT NAS    FAIR      81  65  58 E20       30.17R                  
JACKSONVILLE   FAIR      77  67  71 NE7       30.17R                  
JAX NAS        MOCLDY    78  67  68 E7        30.17R                  
JAX CECIL      PTCLDY    77  66  69 E5        30.17R                  
FERNANDINA BEA FAIR      79  67  65 E9G17     30.18R                  
ST AUGUSTINE   MOCLDY    77  50  39 E17       30.17S                  
PALM COAST     FAIR      77  67  71 E12       30.15R                  

STATION/POSITION SKY/WX   TEMP    WIND        PRES    WAVE   SWELL
                          AIR SEA DIR/SP/G            HT/PER HT/PER
                          (F)     (DEG/KT/KT) (MB)    (FT/S) (FT/S)
SHELL POINT      NOT AVBL
KEATON BEACH               83      70/  8/  9 1019.8R
CEDAR KEY                  82      60/ 14/ 15 1019.6R
FERNANDINA                 86 81   80/  3/  7 1022.5
30.7N   81.3W                 82                N/A     5/14   2/14
MAYPORT                    81 82   80/ 11/ 15 1021.9
31.4N   80.9W              81 81  110/ 14/ 17 1022.1S   5/ 6   3/ 8
ST AUGUSTINE               80 81   90/ 18/ 21 1021.1R

$$
FLZ040-043>046-052-053-057-058-063-144-210100-
INTERIOR CENTRAL FLORIDA
  
CITY           SKY/WX    TMP DP  RH WIND       PRES   REMARKS
OCALA          FAIR      78  68  71 E6        30.14R                  
LEESBURG       FAIR      79  65  62 E8        30.14R                  
SANFORD        FAIR      77  65  66 E7        30.13R                  
ORLANDO EXEC   FAIR      78  64  61 E10       30.13R                  
ORLANDO INTL   FAIR      77  64  64 E8        30.13R                  
KISSIMMEE      FAIR      79  64  60 E12       30.13R                  
WINTER HAVEN   FAIR      80  63  55 E12       30.12R                  
LAKELAND       CLEAR     81  63  54 E9        30.11R                  
BARTOW           N/A     79  64  61 NE13G21   30.10R                  
SEBRING        FAIR      77  68  74 NE9       30.09R                  
OKEECHOBEE     MOCLDY    77  68  73 NE5       30.08R                  

$$
FLZ041-047-054-059-064-141-147-210100-
EAST CENTRAL FLORIDA
  
CITY           SKY/WX    TMP DP  RH WIND       PRES   REMARKS
DAYTONA BEACH  MOCLDY    79  67  66 E7G18     30.14R                  
DELAND         FAIR      75  66  73 E5        30.14R                  
NEW SMYRNA BEA PTCLDY    79  64  61 E14G22    30.15S                  
JFK SPACE CTR  PTCLDY    78  66  67 E12G20    30.12R                  
TITUSVILLE     PTCLDY    82  66  57 E12       30.13R                  
CAPE CANAVERAL FAIR      79  67  67 E15G21    30.11R                  
PATRICK AFB    FAIR      80  66  62 E20       30.11R                  
MELBOURNE      FAIR      81  65  58 E18       30.10R                  
VERO BEACH     CLOUDY    81  67  62 E17G24    30.09S                  
FT PIERCE      CLOUDY    80  65  59 E18G25    30.08R                  

STATION/POSITION SKY/WX   TEMP    WIND        PRES    WAVE   SWELL
                          AIR SEA DIR/SP/G            HT/PER HT/PER
                          (F)     (DEG/KT/KT) (MB)    (FT/S) (FT/S)
28.5N   80.2W              81 83   70/ 21/ 27 1020.1R
28.9N   78.5W              80 81   80/ 19/ 25 1021.2R  14/14  11/14
TRIDENT PIER               80 83   60/ 13/ 19 1021.1
28.4N   80.5W                 82                N/A     5/ 7   2/14
27.5N   80.2W                 82                N/A     9/14   7/14

$$
FLZ050-056-061-142-242-148-248-149-249-151-251-155-255-
160-260-210100-
WEST CENTRAL FLORIDA
  
CITY           SKY/WX    TMP DP  RH WIND       PRES   REMARKS
CRYSTAL RIVER  FAIR      79  68  69 CALM      30.12R                  
INVERNESS      FAIR      79  70  73 E5        30.13R                  
BROOKSVILLE    FAIR      78  65  63 NE8       30.12R                  
CLEARWATER AIR FAIR      81  66  61 E8        30.08R                  
ST PETE CLEARW FAIR      83  66  56 E14G25    30.08R                  
TAMPA INTL     MOCLDY    82  64  54 E12G18    30.09R                  
TAMPA EXEC     FAIR      79  68  69 E8        30.10S                  
PLANT CITY     FAIR      81  66  61 E10       30.12R                  
MACDILL AFB    FAIR      81  65  58 E12       30.08R                  
PETER O KNIGHT MOCLDY    81  66  61 E14G20    30.09R                  
ST PETERSBURG  FAIR      82  67  60 E23G30    30.08R                  
SARASOTA       FAIR      82  66  58 E10       30.05R                  
VENICE         FAIR      79  68  69 NE15      30.06R                  

STATION/POSITION SKY/WX   TEMP    WIND        PRES    WAVE   SWELL
                          AIR SEA DIR/SP/G            HT/PER HT/PER
                          (F)     (DEG/KT/KT) (MB)    (FT/S) (FT/S)
27.3N   84.2W                 85                N/A     6/ 6
CLEARWATER BEACH           81 86   40/ 11/ 15 1018.6
MIDDLE TAMPA BAY           82     100/ 17/ 19 1018.5
VENICE                     80 85   60/ 11/ 14 1017.2R

$$
FLZ066-069-070-075>078-162-262-165-265-210100-
SOUTHWEST FLORIDA AND KEYS
  
CITY           SKY/WX    TMP DP  RH WIND       PRES   REMARKS
PUNTA GORDA    FAIR      78  69  73 E13       30.07R                  
FT MYERS       FAIR      80  68  66 E12       30.03R                  
SOUTHWEST INTL FAIR      79  68  69 E17G29    30.04R                  
NAPLES         FAIR      83  69  62 NE16G25   30.01R                  
MARCO ISLAND   MOCLDY    81  70  69 NE14G20   30.03R                  
IMMOKALEE      FAIR      79  68  69 NE13G20   30.02R                  
MARATHON       FAIR      84  74  71 NE18      29.97R                  
KEY WEST NAS   FAIR      84  74  71 E21G26    29.96R                  
KEY WEST INTL  FAIR      84  74  71 E16G26    29.96S                  

STATION/POSITION SKY/WX   TEMP    WIND        PRES    WAVE   SWELL
                          AIR SEA DIR/SP/G            HT/PER HT/PER
                          (F)     (DEG/KT/KT) (MB)    (FT/S) (FT/S)
NAPLES                     83 85   60/  9/ 14 1016.1
26.0N   85.6W              84 86   80/ 17/ 21 1015.9R   8/ 7
DRY TORTUGAS               83      80/ 21/ 24 1014.4
SAND KEY                   83      80/ 25/ 30 1012.6R
SOMBRERO KEY               83      70/ 23/ 27 1014.4R
LONG KEY                   83                 1013.7R

$$
FLZ067-068-071>074-168-172>174-210100-
SOUTHEAST FLORIDA 
  
CITY           SKY/WX    TMP DP  RH WIND       PRES   REMARKS
W PALM BEACH   MOCLDY    82  66  58 NE18G28   30.06R                  
BOCA RATON     PTCLDY    82  70  65 NE23G29   30.05R                  
FT LAUDER-EXEC CLOUDY    82  70  66 NE20G31   30.03R                  
FT LAUDERDALE  MOCLDY    82  70  66 NE21G31   30.02R                  
POMPANO BEACH  MOCLDY    82  70  66 E21G29    30.04R                  
PEMBROKE PINES CLOUDY    81  71  71 NE22G28   30.03S                  
OPA LOCKA      MOCLDY    79  73  82 NE9       30.03R                  
MIAMI          MOCLDY    83  68  60 E15G26    30.02R                  
WEST KENDALL   RAIN      77  73  87 E17G28    30.01R                  
HOMESTEAD      MOCLDY    78  74  88 NE13      30.00F                  

STATION/POSITION SKY/WX   TEMP    WIND        PRES    WAVE   SWELL
                          AIR SEA DIR/SP/G            HT/PER HT/PER
                          (F)     (DEG/KT/KT) (MB)    (FT/S) (FT/S)
PORT EVERGLADES            83      50/ 21/ 27 1016.7R
VIRGINIA KEY               79 84   80/ 17/ 23 1016.0
LAKE WORTH                 81 82   60/ 22/ 28 1018.9
FOWEY ROCKS                79 84   60/ 29/ 32 1016.3R
SETTLEMENT POINT           81      70/ 22/ 25 1017.5R

$$